owner,sensor,date,latitude,longitude,vertical_datum,direction_of_sea_water_velocity,sea_water_speed,upward_sea_water_velocity,qcFlag 
TABS,ioos:station:wmo:42048:1,2004-06-01T00:00:00Z,27.9396,-96.8429,2.0,276.4328969,17.13789077,-99999.0,'11111222,11111222,99999999' 
TABS,ioos:station:wmo:42048:1,2004-06-01T00:30:00Z,27.9396,-96.8429,2.0,283.0358999,16.80300568,-99999.0,'11111222,11111222,99999999' 
TABS,ioos:station:wmo:42048:1,2004-06-01T01:00:00Z,27.9396,-96.8429,2.0,283.513985,16.21903203,-99999.0,'11111222,11111222,99999999' 
TABS,ioos:station:wmo:42048:1,2004-06-01T01:30:00Z,27.9396,-96.8429,2.0,290.9688796,12.51904549,-99999.0,'11111222,11111222,99999999' 
TABS,ioos:station:wmo:42048:1,2004-06-01T02:00:00Z,27.9396,-96.8429,2.0,290.214682,16.09110313,-99999.0,'11111222,11111222,99999999' 
TABS,ioos:station:wmo:42048:1,2004-06-01T02:30:00Z,27.9396,-96.8429,2.0,291.1721823,14.70238756,-99999.0,'11111222,11111222,99999999' 
TABS,ioos:station:wmo:42048:1,2004-06-01T03:00:00Z,27.9396,-96.8429,2.0,299.4625483,15.83818803,-99999.0,'11111222,11111222,99999999' 
TABS,ioos:station:wmo:42048:1,2004-06-01T03:30:00Z,27.9396,-96.8429,2.0,300.4185873,13.50955588,-99999.0,'11111222,11111222,99999999' 
TABS,ioos:station:wmo:42048:1,2004-06-01T04:00:00Z,27.9396,-96.8429,2.0,313.7839674,13.6573094,-99999.0,'11111222,11111222,99999999' 
TABS,ioos:station:wmo:42048:1,2004-06-01T04:30:00Z,27.9396,-96.8429,2.0,306.1806729,9.638698045,-99999.0,'11133222,11111222,99999999' 
TABS,ioos:station:wmo:42048:1,2004-06-01T05:00:00Z,27.9396,-96.8429,2.0,313.3201252,7.958372949,-99999.0,'11133222,11111222,99999999' 
TABS,ioos:station:wmo:42048:1,2004-06-01T05:30:00Z,27.9396,-96.8429,2.0,337.0816507,7.523948432,-99999.0,'11133222,11111222,99999999' 
TABS,ioos:station:wmo:42048:1,2004-06-01T06:00:00Z,27.9396,-96.8429,2.0,323.0678037,5.492003277,-99999.0,'11133222,11111222,99999999' 
TABS,ioos:station:wmo:42048:1,2004-06-01T06:30:00Z,27.9396,-96.8429,2.0,337.4949479,4.232316151,-99999.0,'11133222,11111222,99999999' 
TABS,ioos:station:wmo:42048:1,2004-06-01T07:00:00Z,27.9396,-96.8429,2.0,25.63838855,7.464971534,-99999.0,'11133222,11111222,99999999' 
TABS,ioos:station:wmo:42048:1,2004-06-01T07:30:00Z,27.9396,-96.8429,2.0,11.47571038,5.428517293,-99999.0,'11133222,11111222,99999999' 
TABS,ioos:station:wmo:42048:1,2004-06-01T08:00:00Z,27.9396,-96.8429,2.0,88.20145235,4.14204056,-99999.0,'11133222,11111222,99999999' 
TABS,ioos:station:wmo:42048:1,2004-06-01T08:30:00Z,27.9396,-96.8429,2.0,122.0173681,5.036050039,-99999.0,'11133222,11111222,99999999' 
TABS,ioos:station:wmo:42048:1,2004-06-01T09:00:00Z,27.9396,-96.8429,2.0,113.2224593,6.289578682,-99999.0,'11133222,11111222,99999999' 
TABS,ioos:station:wmo:42048:1,2004-06-01T09:30:00Z,27.9396,-96.8429,2.0,110.1841316,4.869014274,-99999.0,'11133222,11111222,99999999' 
TABS,ioos:station:wmo:42048:1,2004-06-01T10:00:00Z,27.9396,-96.8429,2.0,118.8337121,6.552343092,-99999.0,'11133222,11111222,99999999' 
TABS,ioos:station:wmo:42048:1,2004-06-01T10:30:00Z,27.9396,-96.8429,2.0,114.9076381,6.339668761,-99999.0,'11133222,11111222,99999999' 
TABS,ioos:station:wmo:42048:1,2004-06-01T11:00:00Z,27.9396,-96.8429,2.0,143.2354948,4.344007366,-99999.0,'11133222,11111222,99999999' 
TABS,ioos:station:wmo:42048:1,2004-06-01T11:30:00Z,27.9396,-96.8429,2.0,147.3447063,6.449441836,-99999.0,'11133222,11111222,99999999' 
TABS,ioos:station:wmo:42048:1,2004-06-01T12:00:00Z,27.9396,-96.8429,2.0,133.4150441,8.948323865,-99999.0,'11133222,11111222,99999999' 
TABS,ioos:station:wmo:42048:1,2004-06-01T12:30:00Z,27.9396,-96.8429,2.0,167.9242617,10.4205806,-99999.0,'11111222,11111222,99999999' 
TABS,ioos:station:wmo:42048:1,2004-06-01T13:00:00Z,27.9396,-96.8429,2.0,160.8484836,9.357911092,-99999.0,'11133222,11111222,99999999' 
TABS,ioos:station:wmo:42048:1,2004-06-01T13:30:00Z,27.9396,-96.8429,2.0,161.5801505,11.86802848,-99999.0,'11111222,11111222,99999999' 
TABS,ioos:station:wmo:42048:1,2004-06-01T14:00:00Z,27.9396,-96.8429,2.0,169.3834506,10.69303512,-99999.0,'11111222,11111222,99999999' 
TABS,ioos:station:wmo:42048:1,2004-06-01T14:30:00Z,27.9396,-96.8429,2.0,173.0654569,11.18179324,-99999.0,'11111222,11111222,99999999' 
TABS,ioos:station:wmo:42048:1,2004-06-01T15:00:00Z,27.9396,-96.8429,2.0,178.0328334,14.85875499,-99999.0,'11111222,11111222,99999999' 
TABS,ioos:station:wmo:42048:1,2004-06-01T15:30:00Z,27.9396,-96.8429,2.0,176.9893696,12.75760557,-99999.0,'11111222,11111222,99999999' 
TABS,ioos:station:wmo:42048:1,2004-06-01T16:00:00Z,27.9396,-96.8429,2.0,187.286138,12.77314762,-99999.0,'11111222,11111222,99999999' 
TABS,ioos:station:wmo:42048:1,2004-06-01T16:30:00Z,27.9396,-96.8429,2.0,190.6000927,10.92646786,-99999.0,'11111222,11111222,99999999' 
TABS,ioos:station:wmo:42048:1,2004-06-01T17:00:00Z,27.9396,-96.8429,2.0,207.2226329,8.569177323,-99999.0,'11133222,11111222,99999999' 
TABS,ioos:station:wmo:42048:1,2004-06-01T17:30:00Z,27.9396,-96.8429,2.0,201.6166959,9.229106132,-99999.0,'11133222,11111222,99999999' 
TABS,ioos:station:wmo:42048:1,2004-06-01T18:00:00Z,27.9396,-96.8429,2.0,211.6532217,8.975171308,-99999.0,'11133222,11111222,99999999' 
TABS,ioos:station:wmo:42048:1,2004-06-01T18:30:00Z,27.9396,-96.8429,2.0,224.828653,4.737636542,-99999.0,'11133222,11111222,99999999' 
TABS,ioos:station:wmo:42048:1,2004-06-01T19:00:00Z,27.9396,-96.8429,2.0,213.0810825,4.1771282,-99999.0,'11133222,11111222,99999999' 
TABS,ioos:station:wmo:42048:1,2004-06-01T19:30:00Z,27.9396,-96.8429,2.0,267.1153669,6.558307709,-99999.0,'11133222,11111222,99999999' 
TABS,ioos:station:wmo:42048:1,2004-06-01T20:00:00Z,27.9396,-96.8429,2.0,270.0915109,6.290007949,-99999.0,'11133222,11111222,99999999' 
TABS,ioos:station:wmo:42048:1,2004-06-01T20:30:00Z,27.9396,-96.8429,2.0,277.8770388,6.713337471,-99999.0,'11133222,11111222,99999999' 
TABS,ioos:station:wmo:42048:1,2004-06-01T21:00:00Z,27.9396,-96.8429,2.0,279.4141962,7.764566955,-99999.0,'11133222,11111222,99999999' 
TABS,ioos:station:wmo:42048:1,2004-06-01T21:30:00Z,27.9396,-96.8429,2.0,294.2307833,9.770782978,-99999.0,'11133222,11111222,99999999' 
TABS,ioos:station:wmo:42048:1,2004-06-01T22:00:00Z,27.9396,-96.8429,2.0,292.3518594,8.703941636,-99999.0,'11133222,11111222,99999999' 
TABS,ioos:station:wmo:42048:1,2004-06-01T22:30:00Z,27.9396,-96.8429,2.0,314.5144965,12.50916864,-99999.0,'11111222,11111222,99999999' 
TABS,ioos:station:wmo:42048:1,2004-06-01T23:00:00Z,27.9396,-96.8429,2.0,312.38986,11.64398987,-99999.0,'11111222,11111222,99999999' 
TABS,ioos:station:wmo:42048:1,2004-06-01T23:30:00Z,27.9396,-96.8429,2.0,309.3071378,9.266380091,-99999.0,'11133222,11111222,99999999' 
TABS,ioos:station:wmo:42048:1,2004-06-02T00:00:00Z,27.9396,-96.8429,2.0,310.0113548,8.212338278,-99999.0,'11133222,11111222,99999999' 
TABS,ioos:station:wmo:42048:1,2004-06-02T00:30:00Z,27.9396,-96.8429,2.0,306.7590268,9.274017468,-99999.0,'11133222,11111222,99999999' 
TABS,ioos:station:wmo:42048:1,2004-06-02T01:00:00Z,27.9396,-96.8429,2.0,326.3538811,10.91927653,-99999.0,'11111222,11111222,99999999' 
TABS,ioos:station:wmo:42048:1,2004-06-02T01:30:00Z,27.9396,-96.8429,2.0,329.9015681,13.85866516,-99999.0,'11111222,11111222,99999999' 
TABS,ioos:station:wmo:42048:1,2004-06-02T02:00:00Z,27.9396,-96.8429,2.0,325.0571532,6.721800354,-99999.0,'11133222,11111222,99999999' 
TABS,ioos:station:wmo:42048:1,2004-06-02T02:30:00Z,27.9396,-96.8429,2.0,356.6337577,6.471166819,-99999.0,'11133222,11111222,99999999' 
TABS,ioos:station:wmo:42048:1,2004-06-02T03:00:00Z,27.9396,-96.8429,2.0,10.53936954,3.499028437,-99999.0,'11133222,11111222,99999999' 
TABS,ioos:station:wmo:42048:1,2004-06-02T03:30:00Z,27.9396,-96.8429,2.0,359.716571,4.040049505,-99999.0,'11133222,11144222,99999999' 
TABS,ioos:station:wmo:42048:1,2004-06-02T04:00:00Z,27.9396,-96.8429,2.0,345.9639998,3.051098163,-99999.0,'11133222,11111222,99999999' 
TABS,ioos:station:wmo:42048:1,2004-06-02T04:30:00Z,27.9396,-96.8429,2.0,321.1783661,2.75960142,-99999.0,'11133222,11111222,99999999' 
TABS,ioos:station:wmo:42048:1,2004-06-02T05:00:00Z,27.9396,-96.8429,2.0,53.44761272,2.166033241,-99999.0,'11133222,11111222,99999999' 
TABS,ioos:station:wmo:42048:1,2004-06-02T05:30:00Z,27.9396,-96.8429,2.0,246.3121081,1.692601548,-99999.0,'11133222,11111222,99999999' 
TABS,ioos:station:wmo:42048:1,2004-06-02T06:00:00Z,27.9396,-96.8429,2.0,32.96703924,15.60218574,-99999.0,'11111222,11111222,99999999' 
TABS,ioos:station:wmo:42048:1,2004-06-02T06:30:00Z,27.9396,-96.8429,2.0,32.76863291,19.65834428,-99999.0,'11111222,11111222,99999999' 
TABS,ioos:station:wmo:42048:1,2004-06-02T07:00:00Z,27.9396,-96.8429,2.0,30.51440868,26.23323083,-99999.0,'11111222,11111222,99999999' 
TABS,ioos:station:wmo:42048:1,2004-06-02T07:30:00Z,27.9396,-96.8429,2.0,30.75137759,24.5056014,-99999.0,'11111222,11111222,99999999' 
TABS,ioos:station:wmo:42048:1,2004-06-02T08:00:00Z,27.9396,-96.8429,2.0,53.06952619,3.778002118,-99999.0,'11133222,11111222,99999999' 
TABS,ioos:station:wmo:42048:1,2004-06-02T08:30:00Z,27.9396,-96.8429,2.0,126.7902643,15.84601527,-99999.0,'11111222,11111222,99999999' 
TABS,ioos:station:wmo:42048:1,2004-06-02T09:00:00Z,27.9396,-96.8429,2.0,138.3425685,12.00588606,-99999.0,'11111222,11111222,99999999' 
TABS,ioos:station:wmo:42048:1,2004-06-02T09:30:00Z,27.9396,-96.8429,2.0,121.5957917,12.90262376,-99999.0,'11111222,11111222,99999999' 
TABS,ioos:station:wmo:42048:1,2004-06-02T10:00:00Z,27.9396,-96.8429,2.0,112.2304548,10.41408661,-99999.0,'11111222,11111222,99999999' 
TABS,ioos:station:wmo:42048:1,2004-06-02T10:30:00Z,27.9396,-96.8429,2.0,104.6208398,14.26183719,-99999.0,'11111222,11111222,99999999' 
TABS,ioos:station:wmo:42048:1,2004-06-02T11:00:00Z,27.9396,-96.8429,2.0,95.99560507,11.20127225,-99999.0,'11111222,11111222,99999999' 
TABS,ioos:station:wmo:42048:1,2004-06-02T11:30:00Z,27.9396,-96.8429,2.0,90.77753603,14.00128923,-99999.0,'11111222,11111222,99999999' 
TABS,ioos:station:wmo:42048:1,2004-06-02T12:00:00Z,27.9396,-96.8429,2.0,96.83007234,16.14457494,-99999.0,'11111222,11111222,99999999' 
TABS,ioos:station:wmo:42048:1,2004-06-02T12:30:00Z,27.9396,-96.8429,2.0,86.89398017,16.79467177,-99999.0,'11111222,11111222,99999999' 
TABS,ioos:station:wmo:42048:1,2004-06-02T13:00:00Z,27.9396,-96.8429,2.0,110.8122743,19.36348109,-99999.0,'11111222,11111222,99999999' 
TABS,ioos:station:wmo:42048:1,2004-06-02T13:30:00Z,27.9396,-96.8429,2.0,102.0971667,16.41450883,-99999.0,'11111222,11111222,99999999' 
TABS,ioos:station:wmo:42048:1,2004-06-02T14:00:00Z,27.9396,-96.8429,2.0,120.1705439,15.8582786,-99999.0,'11111222,11111222,99999999' 
TABS,ioos:station:wmo:42048:1,2004-06-02T14:30:00Z,27.9396,-96.8429,2.0,111.1198068,17.48445309,-99999.0,'11111222,11111222,99999999' 
TABS,ioos:station:wmo:42048:1,2004-06-02T15:00:00Z,27.9396,-96.8429,2.0,137.3053231,15.29295589,-99999.0,'11111222,11111222,99999999' 
TABS,ioos:station:wmo:42048:1,2004-06-02T15:30:00Z,27.9396,-96.8429,2.0,171.7347285,16.20834662,-99999.0,'11111222,11111222,99999999' 
TABS,ioos:station:wmo:42048:1,2004-06-02T16:00:00Z,27.9396,-96.8429,2.0,175.2460172,14.47981008,-99999.0,'11111222,11111222,99999999' 
TABS,ioos:station:wmo:42048:1,2004-06-02T16:30:00Z,27.9396,-96.8429,2.0,196.0307796,19.3005544,-99999.0,'11111222,11111222,99999999' 
TABS,ioos:station:wmo:42048:1,2004-06-02T17:00:00Z,27.9396,-96.8429,2.0,203.4222396,19.82348355,-99999.0,'11111222,11111222,99999999' 
TABS,ioos:station:wmo:42048:1,2004-06-02T17:30:00Z,27.9396,-96.8429,2.0,209.0806962,14.77228825,-99999.0,'11111222,11111222,99999999' 
TABS,ioos:station:wmo:42048:1,2004-06-02T18:00:00Z,27.9396,-96.8429,2.0,212.765411,15.81656094,-99999.0,'11111222,11111222,99999999' 
TABS,ioos:station:wmo:42048:1,2004-06-02T18:30:00Z,27.9396,-96.8429,2.0,213.3896916,14.82733961,-99999.0,'11111222,11111222,99999999' 
TABS,ioos:station:wmo:42048:1,2004-06-02T19:00:00Z,27.9396,-96.8429,2.0,215.8337703,14.38235029,-99999.0,'11111222,11111222,99999999' 
TABS,ioos:station:wmo:42048:1,2004-06-02T19:30:00Z,27.9396,-96.8429,2.0,215.4445689,18.6577705,-99999.0,'11111222,11111222,99999999' 
TABS,ioos:station:wmo:42048:1,2004-06-02T20:00:00Z,27.9396,-96.8429,2.0,218.2177315,16.40654138,-99999.0,'11111222,11111222,99999999' 
TABS,ioos:station:wmo:42048:1,2004-06-02T20:30:00Z,27.9396,-96.8429,2.0,216.4242429,13.89441974,-99999.0,'11111222,11111222,99999999' 
TABS,ioos:station:wmo:42048:1,2004-06-02T21:00:00Z,27.9396,-96.8429,2.0,222.0566324,14.04752647,-99999.0,'11111222,11111222,99999999' 
TABS,ioos:station:wmo:42048:1,2004-06-02T21:30:00Z,27.9396,-96.8429,2.0,228.5311653,12.39791111,-99999.0,'11111222,11111222,99999999' 
TABS,ioos:station:wmo:42048:1,2004-06-02T22:00:00Z,27.9396,-96.8429,2.0,219.1043946,10.25780191,-99999.0,'11111222,11111222,99999999' 
TABS,ioos:station:wmo:42048:1,2004-06-02T22:30:00Z,27.9396,-96.8429,2.0,230.9495351,13.98412314,-99999.0,'11111222,11111222,99999999' 
TABS,ioos:station:wmo:42048:1,2004-06-02T23:00:00Z,27.9396,-96.8429,2.0,239.0425195,14.83291273,-99999.0,'11111222,11111222,99999999' 
TABS,ioos:station:wmo:42048:1,2004-06-02T23:30:00Z,27.9396,-96.8429,2.0,252.9499311,11.11865549,-99999.0,'11111222,11111222,99999999' 
TABS,ioos:station:wmo:42048:1,2004-06-03T00:00:00Z,27.9396,-96.8429,2.0,245.9214816,12.57407253,-99999.0,'11111222,11111222,99999999' 
TABS,ioos:station:wmo:42048:1,2004-06-03T00:30:00Z,27.9396,-96.8429,2.0,255.1604139,12.80713863,-99999.0,'11111222,11111222,99999999' 
TABS,ioos:station:wmo:42048:1,2004-06-03T01:00:00Z,27.9396,-96.8429,2.0,258.6786441,10.18823341,-99999.0,'11111222,11111222,99999999' 
TABS,ioos:station:wmo:42048:1,2004-06-03T01:30:00Z,27.9396,-96.8429,2.0,280.5660337,12.37989499,-99999.0,'11111222,11111222,99999999' 
TABS,ioos:station:wmo:42048:1,2004-06-03T02:00:00Z,27.9396,-96.8429,2.0,270.4937292,8.130301347,-99999.0,'11133222,11111222,99999999' 
TABS,ioos:station:wmo:42048:1,2004-06-03T02:30:00Z,27.9396,-96.8429,2.0,300.3171303,12.30237782,-99999.0,'11111222,11111222,99999999' 
TABS,ioos:station:wmo:42048:1,2004-06-03T03:00:00Z,27.9396,-96.8429,2.0,315.9206485,7.043692214,-99999.0,'11133222,11111222,99999999' 
TABS,ioos:station:wmo:42048:1,2004-06-03T03:30:00Z,27.9396,-96.8429,2.0,299.8555579,9.662323737,-99999.0,'11133222,11111222,99999999' 
TABS,ioos:station:wmo:42048:1,2004-06-03T04:00:00Z,27.9396,-96.8429,2.0,286.2766458,8.563200336,-99999.0,'11133222,11111222,99999999' 
TABS,ioos:station:wmo:42048:1,2004-06-03T04:30:00Z,27.9396,-96.8429,2.0,315.673559,12.0357883,-99999.0,'11111222,11111222,99999999' 
TABS,ioos:station:wmo:42048:1,2004-06-03T05:00:00Z,27.9396,-96.8429,2.0,288.151921,7.671779455,-99999.0,'11133222,11111222,99999999' 
TABS,ioos:station:wmo:42048:1,2004-06-03T05:30:00Z,27.9396,-96.8429,2.0,299.146447,9.732296748,-99999.0,'11133222,11111222,99999999' 
TABS,ioos:station:wmo:42048:1,2004-06-03T06:00:00Z,27.9396,-96.8429,2.0,295.8940074,8.014617895,-99999.0,'11133222,11111222,99999999' 
TABS,ioos:station:wmo:42048:1,2004-06-03T06:30:00Z,27.9396,-96.8429,2.0,276.0769585,8.879893017,-99999.0,'11133222,11111222,99999999' 
TABS,ioos:station:wmo:42048:1,2004-06-03T07:00:00Z,27.9396,-96.8429,2.0,280.1822194,4.582161062,-99999.0,'11133222,11111222,99999999' 
TABS,ioos:station:wmo:42048:1,2004-06-03T07:30:00Z,27.9396,-96.8429,2.0,278.0146386,8.391960438,-99999.0,'11133222,11111222,99999999' 
TABS,ioos:station:wmo:42048:1,2004-06-03T08:00:00Z,27.9396,-96.8429,2.0,264.6238246,7.151454398,-99999.0,'11133222,11111222,99999999' 
TABS,ioos:station:wmo:42048:1,2004-06-03T08:30:00Z,27.9396,-96.8429,2.0,243.1549308,7.329918144,-99999.0,'11133222,11111222,99999999' 
TABS,ioos:station:wmo:42048:1,2004-06-03T09:00:00Z,27.9396,-96.8429,2.0,211.2864446,6.084866473,-99999.0,'11133222,11111222,99999999' 
TABS,ioos:station:wmo:42048:1,2004-06-03T09:30:00Z,27.9396,-96.8429,2.0,214.8975895,9.473610716,-99999.0,'11133222,11111222,99999999' 
TABS,ioos:station:wmo:42048:1,2004-06-03T10:00:00Z,27.9396,-96.8429,2.0,224.0105053,9.830249234,-99999.0,'11133222,11111222,99999999' 
TABS,ioos:station:wmo:42048:1,2004-06-03T10:30:00Z,27.9396,-96.8429,2.0,234.4284389,7.94204004,-99999.0,'11133222,11111222,99999999' 
TABS,ioos:station:wmo:42048:1,2004-06-03T11:00:00Z,27.9396,-96.8429,2.0,240.7569648,9.764389382,-99999.0,'11133222,11111222,99999999' 
TABS,ioos:station:wmo:42048:1,2004-06-03T11:30:00Z,27.9396,-96.8429,2.0,229.1085051,12.43461298,-99999.0,'11111222,11111222,99999999' 
TABS,ioos:station:wmo:42048:1,2004-06-03T12:00:00Z,27.9396,-96.8429,2.0,201.8633808,15.3867248,-99999.0,'11111222,11111222,99999999' 
TABS,ioos:station:wmo:42048:1,2004-06-03T12:30:00Z,27.9396,-96.8429,2.0,222.5243117,14.89849992,-99999.0,'11111222,11111222,99999999' 
TABS,ioos:station:wmo:42048:1,2004-06-03T13:00:00Z,27.9396,-96.8429,2.0,206.7681675,34.01528039,-99999.0,'11111222,11111222,99999999' 
TABS,ioos:station:wmo:42048:1,2004-06-03T13:30:00Z,27.9396,-96.8429,2.0,211.6749347,41.57274708,-99999.0,'11111222,11111222,99999999' 
TABS,ioos:station:wmo:42048:1,2004-06-03T14:00:00Z,27.9396,-96.8429,2.0,195.6808752,36.33225564,-99999.0,'11111222,11111222,99999999' 
TABS,ioos:station:wmo:42048:1,2004-06-03T14:30:00Z,27.9396,-96.8429,2.0,206.1494297,32.69664509,-99999.0,'11111222,11111222,99999999' 
TABS,ioos:station:wmo:42048:1,2004-06-03T15:00:00Z,27.9396,-96.8429,2.0,208.7549663,29.37208539,-99999.0,'11111222,11111222,99999999' 
TABS,ioos:station:wmo:42048:1,2004-06-03T15:30:00Z,27.9396,-96.8429,2.0,218.4413432,22.96864167,-99999.0,'11111222,11111222,99999999' 
TABS,ioos:station:wmo:42048:1,2004-06-03T16:00:00Z,27.9396,-96.8429,2.0,221.1968945,28.67975767,-99999.0,'11111222,11111222,99999999' 
TABS,ioos:station:wmo:42048:1,2004-06-03T16:30:00Z,27.9396,-96.8429,2.0,229.0200174,28.7439124,-99999.0,'11111222,11111222,99999999' 
TABS,ioos:station:wmo:42048:1,2004-06-03T17:00:00Z,27.9396,-96.8429,2.0,224.1261861,31.54062777,-99999.0,'11111222,11111222,99999999' 
TABS,ioos:station:wmo:42048:1,2004-06-03T17:30:00Z,27.9396,-96.8429,2.0,227.9241783,37.14319588,-99999.0,'11111222,11111222,99999999' 
TABS,ioos:station:wmo:42048:1,2004-06-03T18:00:00Z,27.9396,-96.8429,2.0,225.6347644,35.72522918,-99999.0,'11111222,11111222,99999999' 
TABS,ioos:station:wmo:42048:1,2004-06-03T18:30:00Z,27.9396,-96.8429,2.0,232.3601636,46.30817746,-99999.0,'11111222,11111222,99999999' 
TABS,ioos:station:wmo:42048:1,2004-06-03T19:00:00Z,27.9396,-96.8429,2.0,227.5583464,47.35973078,-99999.0,'11111222,11111222,99999999' 
TABS,ioos:station:wmo:42048:1,2004-06-03T19:30:00Z,27.9396,-96.8429,2.0,227.312468,43.80559325,-99999.0,'11111222,11111222,99999999' 
TABS,ioos:station:wmo:42048:1,2004-06-03T20:00:00Z,27.9396,-96.8429,2.0,220.0768181,37.82123874,-99999.0,'11111222,11111222,99999999' 
TABS,ioos:station:wmo:42048:1,2004-06-03T20:30:00Z,27.9396,-96.8429,2.0,220.9044239,44.85317046,-99999.0,'11111222,11111222,99999999' 
TABS,ioos:station:wmo:42048:1,2004-06-03T21:00:00Z,27.9396,-96.8429,2.0,221.1671136,43.69084229,-99999.0,'11111222,11111222,99999999' 
TABS,ioos:station:wmo:42048:1,2004-06-03T21:30:00Z,27.9396,-96.8429,2.0,223.9717092,45.32576861,-99999.0,'11111222,11111222,99999999' 
TABS,ioos:station:wmo:42048:1,2004-06-03T22:00:00Z,27.9396,-96.8429,2.0,218.3684031,46.10777483,-99999.0,'11111222,11111222,99999999' 
TABS,ioos:station:wmo:42048:1,2004-06-03T22:30:00Z,27.9396,-96.8429,2.0,220.6099756,48.40911691,-99999.0,'11111222,11111222,99999999' 
TABS,ioos:station:wmo:42048:1,2004-06-03T23:00:00Z,27.9396,-96.8429,2.0,221.3975483,39.16624057,-99999.0,'11111222,11111222,99999999' 
TABS,ioos:station:wmo:42048:1,2004-06-03T23:30:00Z,27.9396,-96.8429,2.0,218.0819499,31.76110987,-99999.0,'11111222,11111222,99999999' 
TABS,ioos:station:wmo:42048:1,2004-06-04T00:00:00Z,27.9396,-96.8429,2.0,220.6948279,43.70937657,-99999.0,'11111222,11111222,99999999' 
TABS,ioos:station:wmo:42048:1,2004-06-04T00:30:00Z,27.9396,-96.8429,2.0,218.8093844,40.00092249,-99999.0,'11111222,11111222,99999999' 
TABS,ioos:station:wmo:42048:1,2004-06-04T01:00:00Z,27.9396,-96.8429,2.0,215.7233402,41.19024278,-99999.0,'11111222,11111222,99999999' 
TABS,ioos:station:wmo:42048:1,2004-06-04T01:30:00Z,27.9396,-96.8429,2.0,216.323563,45.7500776,-99999.0,'11111222,11111222,99999999' 
TABS,ioos:station:wmo:42048:1,2004-06-04T02:00:00Z,27.9396,-96.8429,2.0,216.0733415,47.34857231,-99999.0,'11111222,11111222,99999999' 
TABS,ioos:station:wmo:42048:1,2004-06-04T02:30:00Z,27.9396,-96.8429,2.0,217.3670905,34.55130244,-99999.0,'11111222,11111222,99999999' 
TABS,ioos:station:wmo:42048:1,2004-06-04T03:00:00Z,27.9396,-96.8429,2.0,216.6803336,32.69417838,-99999.0,'11111222,11111222,99999999' 
TABS,ioos:station:wmo:42048:1,2004-06-04T03:30:00Z,27.9396,-96.8429,2.0,218.284172,37.42940689,-99999.0,'11111222,11111222,99999999' 
TABS,ioos:station:wmo:42048:1,2004-06-04T04:00:00Z,27.9396,-96.8429,2.0,218.5534199,43.01657471,-99999.0,'11111222,11111222,99999999' 
TABS,ioos:station:wmo:42048:1,2004-06-04T04:30:00Z,27.9396,-96.8429,2.0,217.7943367,40.02721324,-99999.0,'11111222,11111222,99999999' 
TABS,ioos:station:wmo:42048:1,2004-06-04T05:00:00Z,27.9396,-96.8429,2.0,220.0831298,34.32196964,-99999.0,'11111222,11111222,99999999' 
TABS,ioos:station:wmo:42048:1,2004-06-04T05:30:00Z,27.9396,-96.8429,2.0,217.5307935,37.26248113,-99999.0,'11111222,11111222,99999999' 
TABS,ioos:station:wmo:42048:1,2004-06-04T06:00:00Z,27.9396,-96.8429,2.0,224.6018043,36.65729941,-99999.0,'11111222,11111222,99999999' 
TABS,ioos:station:wmo:42048:1,2004-06-04T06:30:00Z,27.9396,-96.8429,2.0,233.1094164,33.78400213,-99999.0,'11111222,11111222,99999999' 
TABS,ioos:station:wmo:42048:1,2004-06-04T07:00:00Z,27.9396,-96.8429,2.0,234.9262157,32.28186643,-99999.0,'11111222,11111222,99999999' 
TABS,ioos:station:wmo:42048:1,2004-06-04T07:30:00Z,27.9396,-96.8429,2.0,232.6233181,35.07137009,-99999.0,'11111222,11111222,99999999' 
TABS,ioos:station:wmo:42048:1,2004-06-04T08:00:00Z,27.9396,-96.8429,2.0,229.5789738,33.03541887,-99999.0,'11111222,11111222,99999999' 
TABS,ioos:station:wmo:42048:1,2004-06-04T08:30:00Z,27.9396,-96.8429,2.0,225.1062037,34.23109843,-99999.0,'11111222,11111222,99999999' 
TABS,ioos:station:wmo:42048:1,2004-06-04T09:00:00Z,27.9396,-96.8429,2.0,226.2364448,32.76081806,-99999.0,'11111222,11111222,99999999' 
TABS,ioos:station:wmo:42048:1,2004-06-04T09:30:00Z,27.9396,-96.8429,2.0,222.5079177,31.71544261,-99999.0,'11111222,11111222,99999999' 
TABS,ioos:station:wmo:42048:1,2004-06-04T10:00:00Z,27.9396,-96.8429,2.0,216.7672756,34.71605536,-99999.0,'11111222,11111222,99999999' 
TABS,ioos:station:wmo:42048:1,2004-06-04T10:30:00Z,27.9396,-96.8429,2.0,211.9268539,31.82434603,-99999.0,'11111222,11111222,99999999' 
TABS,ioos:station:wmo:42048:1,2004-06-04T11:00:00Z,27.9396,-96.8429,2.0,208.1453065,29.50943578,-99999.0,'11111222,11111222,99999999' 
TABS,ioos:station:wmo:42048:1,2004-06-04T11:30:00Z,27.9396,-96.8429,2.0,214.9002218,22.05702836,-99999.0,'11111222,11111222,99999999' 
TABS,ioos:station:wmo:42048:1,2004-06-04T12:00:00Z,27.9396,-96.8429,2.0,224.1908179,23.54193068,-99999.0,'11111222,11111222,99999999' 
TABS,ioos:station:wmo:42048:1,2004-06-04T12:30:00Z,27.9396,-96.8429,2.0,224.8360998,19.81321276,-99999.0,'11111222,11111222,99999999' 
TABS,ioos:station:wmo:42048:1,2004-06-04T13:00:00Z,27.9396,-96.8429,2.0,226.1116378,26.5992951,-99999.0,'11111222,11111222,99999999' 
TABS,ioos:station:wmo:42048:1,2004-06-04T13:30:00Z,27.9396,-96.8429,2.0,223.8377497,27.54747357,-99999.0,'11111222,11111222,99999999' 
TABS,ioos:station:wmo:42048:1,2004-06-04T14:00:00Z,27.9396,-96.8429,2.0,217.5201706,23.95554424,-99999.0,'11111222,11111222,99999999' 
TABS,ioos:station:wmo:42048:1,2004-06-04T14:30:00Z,27.9396,-96.8429,2.0,216.4618097,14.05035587,-99999.0,'11111222,11111222,99999999' 
TABS,ioos:station:wmo:42048:1,2004-06-04T15:00:00Z,27.9396,-96.8429,2.0,221.9500066,21.93015504,-99999.0,'11111222,11111222,99999999' 
TABS,ioos:station:wmo:42048:1,2004-06-04T15:30:00Z,27.9396,-96.8429,2.0,211.2531357,16.96142683,-99999.0,'11111222,11111222,99999999' 
TABS,ioos:station:wmo:42048:1,2004-06-04T16:00:00Z,27.9396,-96.8429,2.0,205.7670427,17.66664937,-99999.0,'11111222,11111222,99999999' 